HST 1 20580U 90037B 26257.17378261 .00005382 00000+0 16369-3 0 9996 2 20580 28.4732 191.9585 0001881 59.3129 300.7652 15.31641591802221 POLAR 1 23802U 96013A 26256.61519253 .00000114 00000+0 00000+0 0 9991 2 23802 79.9839 225.9890 6560748 206.0484 96.0357 1.29845780146002 SWAS 1 25560U 98071A 26257.25526437 .00002961 00000+0 18778-3 0 9990 2 25560 69.8981 357.7453 0003196 139.9787 220.1614 15.10092145510716 CXO 1 25867U 99040B 26259.29000158 .00000789 00000+0 00000+0 0 9991 2 25867 57.4112 114.2820 7693035 309.4077 0.3912 0.37803042 17663 XMM-NEWTON 1 25989U 99066A 26259.10482038 .00000073 00000+0 00000+0 0 9991 2 25989 64.0056 281.8070 4648830 63.2758 0.1066 0.50126544 23461 TERRA 1 25994U 99068A 26257.60956172 .00000236 00000+0 56998-4 0 9990 2 25994 97.9370 303.5733 0001378 344.1644 176.5310 14.61160045422666 TIMED 1 26998U 01055B 26257.38827037 .00000930 00000+0 87648-4 0 9993 2 26998 74.0669 55.3867 0001886 235.4185 124.6822 14.95454729344155 CORIOLIS 1 27640U 03001A 26257.47560437 .00000078 00000+0 57136-4 0 9991 2 27640 98.7168 263.0132 0013245 319.6148 40.4044 14.19966395226890 SORCE 1 27651U 03004A 26257.65314689 .00002110 00000+0 15996-3 0 9998 2 27651 39.9898 111.0728 0018105 330.1370 29.8390 15.04108173285377 MOST 1 27843U 03031D 26257.47385858 .00000034 00000+0 35463-4 0 9992 2 27843 98.7082 263.9675 0009834 1.4954 358.6251 14.21337755203390 SCISAT 1 1 27858U 03036A 26257.56452876 .00000437 00000+0 60370-4 0 9990 2 27858 73.9325 353.7460 0006655 27.0332 333.1189 14.81537836244686 SWIFT 1 28485U 04047A 26257.20538003 .00141533 00000+0 68693-3 0 9996 2 28485 20.5506 213.1233 0002475 196.8100 163.2267 15.80652070200907 HINODE (SOLAR-B) 1 29479U 06041A 26257.50314704 .00000401 00000+0 77127-4 0 9990 2 29479 98.0550 272.3447 0017586 9.3202 350.8326 14.68720558 67985 SHIJIAN-6 02A (SJ-6 02A) 1 29505U 06046A 26257.57785608 .00004443 00000+0 22323-3 0 9994 2 29505 97.6282 299.3349 0003048 160.1150 200.0203 15.17801536 85822 SHIJIAN-6 02B (SJ-6 02B) 1 29506U 06046B 26257.51591904 .00000257 00000+0 24527-4 0 9991 2 29506 97.6982 285.9639 0016064 127.1662 233.1032 15.01477596 84145 FGRST (GLAST) 1 33053U 08029A 26257.52908721 .00002807 00000+0 98006-4 0 9992 2 33053 25.5827 303.9449 0007531 302.8822 57.0992 15.24348989 9338 SDO 1 36395U 10005A 26257.49503465 -.00000071 00000+0 00000+0 0 9997 2 36395 34.8356 84.9826 0001617 74.0463 271.0397 1.00275054 60956 CRYOSAT 2 1 36508U 10013A 26257.60875763 .00000057 00000+0 13304-4 0 9997 2 36508 92.0278 299.0167 0002367 84.7340 275.4137 14.51904549871052 X-SAT 1 37389U 11015C 26257.59636443 .00000008 00000+0 20988-4 0 9998 2 37389 98.3623 230.4064 0015288 80.5300 279.7607 14.25227883800415 GCOM-W1 (SHIZUKU) 1 38337U 12025A 26257.32204837 .00000329 00000+0 82928-4 0 9991 2 38337 98.2066 196.5411 0001495 86.8251 74.4441 14.57133635762011 NUSTAR 1 38358U 12031A 26257.66671296 .00005254 00000+0 26549-3 0 9993 2 38358 6.0257 82.5428 0007912 355.1263 129.3736 15.09532350 1300 NEOSSAT 1 39089U 13009D 26257.19831980 .00000086 00000+0 44343-4 0 9998 2 39089 98.4226 75.1454 0010703 347.4621 12.6297 14.35852933709518 BRITE-AUSTRIA 1 39091U 13009F 26256.94360078 .00000103 00000+0 49665-4 0 9990 2 39091 98.4047 74.2151 0009769 341.8484 18.2353 14.36571244709790 IRIS 1 39197U 13033A 26257.52188952 .00000729 00000+0 89324-4 0 9998 2 39197 97.9281 96.5144 0025131 29.5071 330.7556 14.86035771713644 HISAKI (SPRINT-A) 1 39253U 13049A 26257.02261136 .00000115 00000+0 70949-4 0 9991 2 39253 29.7187 128.3607 0136466 16.9749 343.5331 13.55550607643481 CASSIOPE 1 39265U 13055A 26257.60013265 .00037444 -60618-6 37229-3 0 9990 2 39265 80.9126 317.6249 0269748 119.5391 243.3033 15.31533019681329 STSAT-3 1 39422U 13066G 26257.59162161 .00002517 00000+0 19045-3 0 9995 2 39422 97.6322 226.0971 0010897 91.0524 269.1950 15.03179563697637 SWARM B 1 39451U 13067A 26257.61232242 .00002515 00000+0 87972-4 0 9992 2 39451 87.7437 315.1640 0003427 89.5853 270.5789 15.29037762696904 SWARM A 1 39452U 13067B 26257.59757766 .00009498 00000+0 16439-3 0 9999 2 39452 87.3360 23.0199 0002369 100.6614 259.4914 15.50758469720108 SWARM C 1 39453U 13067C 26257.59746689 .00009377 00000+0 16229-3 0 9995 2 39453 87.3363 21.6029 0002380 100.7702 259.3827 15.50757364720060 BRITE-CA1 (TORONTO) 1 40020U 14033L 26257.58441532 .00000483 00000+0 80118-4 0 9997 2 40020 97.9857 24.9259 0078158 351.7359 8.2556 14.72813049655377 OCO 2 1 40059U 14035A 26257.56266008 .00000285 00000+0 73305-4 0 9992 2 40059 98.2066 197.5120 0001649 78.8763 281.2621 14.57089533649067 BRITE-PL2 (HEWELIUSZ) 1 40119U 14049B 26257.54117069 .00001689 00000+0 16022-3 0 9995 2 40119 97.9168 10.2792 0014192 167.1749 192.9835 14.94857063654795 MMS 1 1 40482U 15011A 26257.66671296 -.00001854 00000+0 00000+0 0 9998 2 40482 72.9529 347.7738 8256880 169.3950 66.2300 0.28334835 1412 MMS 2 1 40483U 15011B 26257.66671296 -.00001854 00000+0 00000+0 0 9999 2 40483 72.9574 347.7727 8259704 169.3948 66.2148 0.28336106 1419 MMS 3 1 40484U 15011C 26257.66671296 -.00001854 00000+0 00000+0 0 9990 2 40484 72.9568 347.7848 8258074 169.4034 66.1884 0.28336069 1417 MMS 4 1 40485U 15011D 26257.66671296 -.00001854 00000+0 00000+0 0 9991 2 40485 72.9505 347.7687 8258146 169.4133 66.1843 0.28336063 1419 ASTROSAT 1 40930U 15052A 26257.56100690 .00001440 00000+0 93092-4 0 9993 2 40930 5.9963 231.9715 0008247 233.9343 126.0020 14.82641579593113 DAMPE 1 41173U 15078A 26257.58600486 .00001083 00000+0 38723-4 0 9994 2 41173 97.4592 263.5231 0013408 114.3122 245.9521 15.30976632598222 PISAT 1 41784U 16059B 26256.96214645 .00000699 00000+0 12639-3 0 9990 2 41784 97.8245 253.6347 0027503 282.7355 77.0777 14.69123524532776 HXMT (HUIYAN) 1 42758U 17034A 26257.63974677 .00003662 00000+0 18044-3 0 9998 2 42758 43.0151 44.6895 0031615 350.4307 9.5937 15.19128918511269 FLYING LAPTOP 1 42831U 17042G 26257.62553725 .00001957 00000+0 15508-3 0 9992 2 42831 97.5006 49.9555 0016413 174.9593 185.1800 15.01589511499873 ZHANGHENG 1-01 (CSES-1) 1 43194U 18015C 26257.62042896 .00005442 00000+0 25098-3 0 9996 2 43194 97.6960 65.1050 0013574 330.6579 29.3892 15.20612573478239 SALSAT 1 46495U 20068K 26257.26571775 .00005740 00000+0 19484-3 0 9990 2 46495 97.8883 265.8489 0009220 1.1573 358.9687 15.30910957328981 IXPE 1 49954U 21121A 26257.66671296 .00009926 00000+0 52282-3 0 9990 2 49954 0.2310 0.0890 0006707 355.8556 121.6648 15.10964432 5809 SMILE 1 69123U 26109A 26253.91179029 .00000505 00000+0 00000+0 0 9993 2 69123 70.0136 206.2630 8182473 285.8392 5.3268 0.47510467 355